Showing default

GLOBAL-4, 44499

Orbit data source: Space-Track

GLOBAL-4, 44499 is a payload satellite owned by BlackSky Global (US) in LEO that was launched on Mon, 19 Aug 2019 UTC via an ELECTRON launch vehicle from the Rocket Lab Launch Complex (RLLC). Payloads include a variety of satellites, spacecraft, and rockets equipped with specific instruments for various scientific and technological missions. These include communications satellites like Starlink; space stations such as the ISS; scientific satellites like the Hubble; Earth observation satellites from companies like Planet Labs, Umbra, and HawkEye 360; GPS; miniature CubeSats for education and research; and military/defense satellites.

Loading next visibility...
GLOBAL-4 details
Identifier
44499, 2019-054E
Orbit
LEO
Last TLE update1 day ago
Origin
Flag of USBlackSky Global (US)
ManufacturerLeoStella
MissionOperational Commercial Imaging
Bus & MotorBSKY, Unknown motor
Mass55 kg wet, ~50 kg dry
Launch date (UTC)
2019-08-19 (5 years ago)
Launch vehicle
ELECTRON
Launch site
Rocket Lab Launch Complex (RLLC)
Object type
Payload
Rocket body
Debris
Shape & HBRBox, 1 m
Radar Cross Section0.625 m², Medium (>0.1 m² and < 1m²)

Expand to show TLE details & history

TLE from 1 day ago
0 GLOBAL-4
1 44499U 19054E   24360.51039402  .00038578  00000-0  94841-3 0  9998
2 44499  45.0164  21.5681 0005622   1.9967 358.0943 15.40043211296978
Epoch: 2024-12-25T12:14Z
Definitive object data (Epoch: 2024-12-25T12:14:58.043Z)
Latitude0.00001°
Longitude103.32316°
Altitude442.148 km
Speed7.651 km/s
True Right ascension01h 26m 16s
True Declination0° 00' 00"
Sunlit
Object was in daylight at TLE epoch
Visualization TLE readout
Latitude-17.82259°
Longitude78.2167°
Altitude446.515 km
Speed7.647 km/s
Apparent Right ascension01h 21m 32s
Apparent Declination-31° 24' 05"
Sunlit
Object is in daylight
Visualization observer readout
Local Sidereal Time15:31:43
Azimuth82.304° E
Elevation-62.396°
Doppler factor1
Orbital elements
Apogee altitude451.434 km
Perigee altitude443.759 km
Semi-major axis6,825.734 km
Eccentricity0.0005622
Inclination45.0164°
RAAN21.5681°
Arg. of periapsis1.9967°
True anomaly358.09216°
Mean anomaly358.0943°
Eccentric anomaly358.09323°
Mean motion3.84875 °/min
BSTAR0.00094841
Orbital period93.54 mins
Loading maneuver chart data...
Loading historical data...
Loading historical data...
Loading historical data...
Loading historical data...
Loading historical data...
Loading historical data...
Loading historical data...

GLOBAL-4 Visibility forecast

Observer location: undefined°, undefined

Span
Click to sort rows by Start time (UTC) header in descending order
Start Az.
Max El. time (UTC)
Max El. Az.
Max El.
End time (UTC)
End Az.
5 mins2024-12-27 04:57:35.642Z237.818° WSW2024-12-27 04:59:35.642Z184.569° SSW44.08°2024-12-27 05:02:35.642Z68.967° E
5 mins2024-12-27 06:35:35.642Z289.924° WNW2024-12-27 06:37:35.642Z339.501° N31.056°2024-12-27 06:40:35.642Z57.866° ENE
4 mins2024-12-27 08:14:35.642Z314.802° NW2024-12-27 08:16:35.642Z26.591° NE32.077°2024-12-27 08:18:35.642Z74.524° E
5 mins2024-12-27 09:52:35.642Z282.451° WNW2024-12-27 09:54:35.642Z179.166° S41.457°2024-12-27 09:57:35.642Z126.27° SE
|